NJE231 LICJ-LSZR

Flight info

Callsign NJE231
Flight time 1h 23m
Altitude 43000
Route GIANO DCT PEPIX DCT AMTEL DCT IBRID DCT TIPNI DCT KREVA DCT IDREK DCT RESIA Z50 SOPER N851 ROLSA
Aircraft C750/M-SBDE3FGHRWXY/S

Departure

Time 2026-05-07 11:55
Airport Falcone–Borsellino Airport (LICJ)

Arrival

Time 2026-05-07 13:18
Airport Sankt Gallen Altenrhein Airport (LSZR)
Time Latitude Longitude Altitude Speed Heading
2026-05-07 11:36 38.18379 13.10598 58 ft 0 kts 155°
2026-05-07 11:45 38.18385 13.10594 62 ft 4 kts 156°
2026-05-07 11:46 38.18410 13.10581 60 ft 4 kts 162°
2026-05-07 11:46 38.18436 13.10574 57 ft 4 kts 179°
2026-05-07 11:46 38.18458 13.10580 62 ft 4 kts 235°
2026-05-07 11:46 38.18463 13.10590 55 ft 1 kts 246°
2026-05-07 11:48 38.18463 13.10591 55 ft 0 kts 246°
2026-05-07 11:49 38.18460 13.10580 62 ft 3 kts 246°
2026-05-07 11:49 38.18446 13.10544 58 ft 6 kts 241°
2026-05-07 11:49 38.18400 13.10506 62 ft 10 kts 201°
2026-05-07 11:50 38.18330 13.10466 57 ft 12 kts 228°
2026-05-07 11:50 38.18284 13.10372 62 ft 13 kts 214°
2026-05-07 11:50 38.18208 13.10340 62 ft 12 kts 236°
2026-05-07 11:50 38.18169 13.10232 60 ft 15 kts 246°
2026-05-07 11:51 38.18122 13.10091 61 ft 20 kts 246°
2026-05-07 11:51 38.18061 13.09913 61 ft 24 kts 246°
2026-05-07 11:51 38.17989 13.09700 62 ft 28 kts 247°
2026-05-07 11:51 38.17906 13.09455 62 ft 32 kts 247°
2026-05-07 11:52 38.17823 13.09203 67 ft 30 kts 246°
2026-05-07 11:52 38.17738 13.08961 62 ft 28 kts 235°
2026-05-07 11:52 38.17596 13.08818 63 ft 25 kts 217°
2026-05-07 11:52 38.17453 13.08717 67 ft 22 kts 198°
2026-05-07 11:53 38.17308 13.08655 64 ft 23 kts 198°
2026-05-07 11:53 38.17158 13.08595 60 ft 22 kts 197°
2026-05-07 11:53 38.17013 13.08536 59 ft 21 kts 198°
2026-05-07 11:53 38.16873 13.08479 62 ft 21 kts 198°
2026-05-07 11:54 38.16725 13.08445 62 ft 21 kts 168°
2026-05-07 11:54 38.16650 13.08534 65 ft 12 kts 112°
2026-05-07 11:54 38.16674 13.08598 63 ft 11 kts 21°
2026-05-07 11:54 38.17060 13.08814 68 ft 114 kts 24°
2026-05-07 11:55 38.17925 13.09291 485 ft 135 kts 24°
2026-05-07 11:55 38.18447 13.09572 1327 ft 111 kts 24°
2026-05-07 11:55 38.19455 13.10141 2246 ft 137 kts 25°
2026-05-07 11:55 38.20430 13.10640 2666 ft 165 kts 23°
2026-05-07 11:56 38.21547 13.11253 3201 ft 187 kts 28°
2026-05-07 11:56 38.22794 13.12031 3770 ft 212 kts 27°
2026-05-07 11:56 38.24214 13.12846 4384 ft 236 kts 25°
2026-05-07 11:56 38.25248 13.13418 4794 ft 251 kts 25°
2026-05-07 11:57 38.26920 13.14349 5432 ft 270 kts 25°
2026-05-07 11:57 38.28666 13.15208 6463 ft 272 kts 14°
2026-05-07 11:57 38.30577 13.15003 7300 ft 284 kts 343°
2026-05-07 11:57 38.32273 13.13699 8305 ft 290 kts 319°
2026-05-07 11:58 38.33722 13.11847 9376 ft 293 kts 313°
2026-05-07 11:58 38.35152 13.09972 10258 ft 300 kts 313°
2026-05-07 11:58 38.36683 13.08067 10573 ft 325 kts 315°
2026-05-07 11:58 38.38383 13.05988 10734 ft 352 kts 314°
2026-05-07 11:59 38.40173 13.03754 11255 ft 361 kts 314°
2026-05-07 11:59 38.41957 13.01506 12175 ft 361 kts 313°
2026-05-07 11:59 38.43758 12.99251 12919 ft 365 kts 313°
2026-05-07 11:59 38.45584 12.96973 13701 ft 368 kts 313°
2026-05-07 12:00 38.47421 12.94671 14376 ft 372 kts 312°
2026-05-07 12:00 38.49267 12.92352 15080 ft 374 kts 312°
2026-05-07 12:00 38.51129 12.90016 15770 ft 377 kts 312°
2026-05-07 12:00 38.53006 12.87659 16481 ft 379 kts 312°
2026-05-07 12:01 38.54897 12.85283 17208 ft 382 kts 312°
2026-05-07 12:01 38.56798 12.82892 17976 ft 385 kts 311°
2026-05-07 12:01 38.58714 12.80478 18668 ft 388 kts 311°
2026-05-07 12:01 38.60643 12.78049 19383 ft 390 kts 311°
2026-05-07 12:02 38.62582 12.75604 20104 ft 393 kts 311°
2026-05-07 12:02 38.64532 12.73143 20837 ft 395 kts 310°
2026-05-07 12:02 38.66499 12.70659 21561 ft 398 kts 310°
2026-05-07 12:02 38.68475 12.68161 22291 ft 401 kts 310°
2026-05-07 12:03 38.70468 12.65640 23023 ft 404 kts 309°
2026-05-07 12:03 38.72477 12.63096 23699 ft 407 kts 309°
2026-05-07 12:03 38.74491 12.60545 24350 ft 408 kts 309°
2026-05-07 12:03 38.76512 12.57984 25031 ft 408 kts 309°
2026-05-07 12:04 38.78534 12.55416 25688 ft 409 kts 308°
2026-05-07 12:04 38.80557 12.52845 26332 ft 411 kts 308°
2026-05-07 12:04 38.82678 12.50362 26962 ft 417 kts 313°
2026-05-07 12:04 38.85075 12.48198 27617 ft 426 kts 319°
2026-05-07 12:05 38.87720 12.46393 28256 ft 436 kts 326°
2026-05-07 12:05 38.90593 12.45004 28876 ft 447 kts 333°
2026-05-07 12:05 38.93630 12.44095 29475 ft 460 kts 340°
2026-05-07 12:05 38.96846 12.43656 30039 ft 469 kts 345°
2026-05-07 12:06 39.00104 12.43319 30494 ft 471 kts 345°
2026-05-07 12:06 39.03382 12.42948 30930 ft 474 kts 344°
2026-05-07 12:06 39.06666 12.42578 31584 ft 472 kts 343°
2026-05-07 12:06 39.09938 12.42227 32223 ft 470 kts 343°
2026-05-07 12:07 39.13201 12.41873 32820 ft 470 kts 342°
2026-05-07 12:07 39.16452 12.41510 33445 ft 469 kts 342°
2026-05-07 12:07 39.19679 12.41151 34049 ft 469 kts 341°
2026-05-07 12:07 39.22925 12.40796 34641 ft 466 kts 341°
2026-05-07 12:08 39.26148 12.40446 35338 ft 462 kts 341°
2026-05-07 12:08 39.29339 12.40093 36040 ft 458 kts 341°
2026-05-07 12:08 39.32489 12.39741 36743 ft 453 kts 341°
2026-05-07 12:08 39.35623 12.39393 37451 ft 450 kts 340°
2026-05-07 12:09 39.38733 12.39050 38127 ft 446 kts 340°
2026-05-07 12:09 39.41823 12.38707 38780 ft 443 kts 340°
2026-05-07 12:09 39.44886 12.38362 39173 ft 444 kts 341°
2026-05-07 12:09 39.47985 12.38011 39503 ft 447 kts 341°
2026-05-07 12:10 39.51054 12.37671 39867 ft 449 kts 342°
2026-05-07 12:10 39.54172 12.37329 40229 ft 451 kts 342°
2026-05-07 12:10 39.57306 12.36979 40605 ft 452 kts 343°
2026-05-07 12:10 39.60449 12.36626 40977 ft 454 kts 343°
2026-05-07 12:11 39.63609 12.36273 41356 ft 456 kts 344°
2026-05-07 12:11 39.66777 12.35920 41722 ft 458 kts 344°
2026-05-07 12:11 39.69960 12.35565 42093 ft 460 kts 345°
2026-05-07 12:11 39.73155 12.35207 42470 ft 461 kts 345°
2026-05-07 12:12 39.76354 12.34848 42835 ft 463 kts 346°
2026-05-07 12:12 39.79574 12.34485 42980 ft 469 kts 346°
2026-05-07 12:12 39.82860 12.34110 42982 ft 478 kts 346°
2026-05-07 12:13 39.89619 12.33355 42997 ft 496 kts 347°
2026-05-07 12:13 39.96607 12.32567 42998 ft 510 kts 347°
2026-05-07 12:14 40.03707 12.31769 42992 ft 513 kts 347°
2026-05-07 12:14 40.10772 12.30967 42999 ft 513 kts 347°
2026-05-07 12:15 40.17897 12.30160 42999 ft 513 kts 347°
2026-05-07 12:15 40.25010 12.29351 43001 ft 513 kts 347°
2026-05-07 12:16 40.32134 12.28540 43004 ft 513 kts 347°
2026-05-07 12:16 40.39242 12.27729 43009 ft 513 kts 347°
2026-05-07 12:17 40.46351 12.26916 43007 ft 513 kts 347°
2026-05-07 12:17 40.53458 12.26101 43010 ft 513 kts 347°
2026-05-07 12:18 40.60599 12.25282 43012 ft 515 kts 347°
2026-05-07 12:18 40.67697 12.24464 43015 ft 515 kts 347°
2026-05-07 12:19 40.74881 12.23636 43012 ft 515 kts 347°
2026-05-07 12:19 40.82022 12.22810 43015 ft 515 kts 347°
2026-05-07 12:20 40.89129 12.21987 43018 ft 516 kts 347°
2026-05-07 12:20 40.96275 12.21158 43016 ft 516 kts 347°
2026-05-07 12:21 41.03437 12.20325 43014 ft 516 kts 347°
2026-05-07 12:21 41.10609 12.19488 43011 ft 517 kts 347°
2026-05-07 12:22 41.17742 12.18413 42988 ft 510 kts 341°
2026-05-07 12:22 41.24691 12.16468 43014 ft 511 kts 341°
2026-05-07 12:23 41.31673 12.14592 43012 ft 512 kts 341°
2026-05-07 12:23 41.38650 12.12661 43005 ft 512 kts 341°
2026-05-07 12:24 41.45642 12.10752 43009 ft 513 kts 341°
2026-05-07 12:24 41.52633 12.08823 43002 ft 513 kts 341°
2026-05-07 12:25 41.59643 12.06891 42999 ft 514 kts 341°
2026-05-07 12:25 41.66651 12.04954 43001 ft 515 kts 341°
2026-05-07 12:26 41.73688 12.03004 43005 ft 515 kts 342°
2026-05-07 12:26 41.80711 12.01055 43080 ft 515 kts 342°
2026-05-07 12:27 41.87747 11.99096 43092 ft 516 kts 342°
2026-05-07 12:27 41.94776 11.97136 43096 ft 516 kts 342°
2026-05-07 12:28 42.01814 11.95169 43084 ft 516 kts 342°
2026-05-07 12:28 42.08844 11.93199 43062 ft 516 kts 342°
2026-05-07 12:29 42.15890 11.91221 43044 ft 516 kts 342°
2026-05-07 12:29 42.22980 11.89225 43022 ft 517 kts 342°
2026-05-07 12:30 42.30021 11.87239 43015 ft 516 kts 342°
2026-05-07 12:30 42.37059 11.85248 43022 ft 517 kts 342°
2026-05-07 12:31 42.44107 11.83252 43027 ft 517 kts 342°
2026-05-07 12:31 42.51199 11.81237 43022 ft 517 kts 342°
2026-05-07 12:32 42.58249 11.79230 43019 ft 517 kts 342°
2026-05-07 12:32 42.65294 11.77220 43014 ft 518 kts 342°
2026-05-07 12:33 42.74687 11.74532 43019 ft 518 kts 342°
2026-05-07 12:33 42.82888 11.72179 43022 ft 518 kts 342°
2026-05-07 12:34 42.88805 11.70477 43015 ft 518 kts 342°
2026-05-07 12:34 42.95873 11.68439 43019 ft 518 kts 342°
2026-05-07 12:35 43.02929 11.66401 43014 ft 518 kts 343°
2026-05-07 12:35 43.09958 11.64365 43018 ft 519 kts 343°
2026-05-07 12:36 43.17015 11.62317 43014 ft 519 kts 343°
2026-05-07 12:36 43.23868 11.59494 42997 ft 508 kts 330°
2026-05-07 12:37 43.30060 11.54885 43013 ft 506 kts 326°
2026-05-07 12:37 43.36279 11.50320 43014 ft 507 kts 327°
2026-05-07 12:38 43.42467 11.45701 43014 ft 506 kts 326°
2026-05-07 12:38 43.48898 11.41670 42995 ft 515 kts 338°
2026-05-07 12:39 43.56009 11.39780 43017 ft 522 kts 346°
2026-05-07 12:39 43.63208 11.38084 43006 ft 520 kts 344°
2026-05-07 12:40 43.70297 11.36356 43007 ft 521 kts 345°
2026-05-07 12:40 43.77490 11.34663 43000 ft 520 kts 345°
2026-05-07 12:41 43.84590 11.32929 43005 ft 521 kts 345°
2026-05-07 12:41 43.91743 11.31227 43002 ft 521 kts 345°
2026-05-07 12:42 43.98926 11.29476 43002 ft 521 kts 345°
2026-05-07 12:42 44.06026 11.27767 43003 ft 521 kts 345°
2026-05-07 12:43 44.13177 11.26023 42997 ft 521 kts 345°
2026-05-07 12:43 44.20342 11.24285 42991 ft 523 kts 345°
2026-05-07 12:44 44.27559 11.22521 42985 ft 522 kts 345°
2026-05-07 12:44 44.34856 11.21863 42977 ft 531 kts 357°
2026-05-07 12:45 44.42257 11.22290 42970 ft 532 kts 357°
2026-05-07 12:45 44.49608 11.22446 42978 ft 531 kts 356°
2026-05-07 12:46 44.57005 11.22779 42975 ft 532 kts 357°
2026-05-07 12:46 44.64450 11.23012 42973 ft 532 kts 356°
2026-05-07 12:47 44.71857 11.23299 42969 ft 532 kts 357°
2026-05-07 12:47 44.79167 11.22609 42958 ft 522 kts 343°
2026-05-07 12:48 44.86058 11.19459 42990 ft 516 kts 334°
2026-05-07 12:48 44.92884 11.16209 42992 ft 519 kts 338°
2026-05-07 12:49 44.99728 11.13034 42996 ft 517 kts 336°
2026-05-07 12:49 45.06597 11.09720 42998 ft 518 kts 337°
2026-05-07 12:50 45.13447 11.06520 43005 ft 518 kts 336°
2026-05-07 12:50 45.20271 11.03232 43001 ft 518 kts 337°
2026-05-07 12:51 45.27124 10.99991 43002 ft 518 kts 337°
2026-05-07 12:51 45.33954 10.96703 42976 ft 518 kts 337°
2026-05-07 12:52 45.40797 10.93435 42974 ft 518 kts 337°
2026-05-07 12:52 45.47625 10.90143 42971 ft 518 kts 337°
2026-05-07 12:53 45.54456 10.86855 42982 ft 518 kts 337°
2026-05-07 12:53 45.61280 10.83555 42978 ft 518 kts 337°
2026-05-07 12:54 45.67751 10.79146 42969 ft 508 kts 323°
2026-05-07 12:54 45.73671 10.73578 42992 ft 509 kts 323°
2026-05-07 12:55 45.79695 10.68116 42984 ft 509 kts 323°
2026-05-07 12:55 45.85649 10.62572 42982 ft 509 kts 323°
2026-05-07 12:56 45.91649 10.57047 42988 ft 509 kts 323°
2026-05-07 12:56 45.97598 10.51514 42996 ft 509 kts 323°
2026-05-07 12:57 46.03553 10.45980 42993 ft 509 kts 323°
2026-05-07 12:57 46.09495 10.40437 43000 ft 509 kts 323°
2026-05-07 12:58 46.14477 10.35777 42999 ft 509 kts 323°
2026-05-07 12:58 46.20389 10.30247 42680 ft 496 kts 323°
2026-05-07 12:59 46.23254 10.27564 42031 ft 484 kts 323°
2026-05-07 12:59 46.26039 10.24944 41427 ft 472 kts 323°
2026-05-07 12:59 46.28760 10.22379 40842 ft 461 kts 322°
2026-05-07 12:59 46.31427 10.19865 40275 ft 454 kts 322°
2026-05-07 13:00 46.34056 10.17383 39703 ft 450 kts 322°
2026-05-07 13:00 46.36686 10.14896 39113 ft 451 kts 322°
2026-05-07 13:00 46.39317 10.12407 38502 ft 452 kts 322°
2026-05-07 13:00 46.41911 10.09954 38029 ft 449 kts 322°
2026-05-07 13:01 46.44537 10.07464 37656 ft 453 kts 322°
2026-05-07 13:01 46.47155 10.04947 37259 ft 452 kts 321°
2026-05-07 13:01 46.49608 10.01984 36418 ft 450 kts 313°
2026-05-07 13:01 46.51800 9.98851 35774 ft 445 kts 311°
2026-05-07 13:02 46.53994 9.95689 35089 ft 444 kts 312°
2026-05-07 13:02 46.56234 9.92588 34383 ft 443 kts 313°
2026-05-07 13:02 46.58501 9.89484 33884 ft 437 kts 313°
2026-05-07 13:02 46.60692 9.86409 33902 ft 441 kts 312°
2026-05-07 13:03 46.62903 9.83262 33097 ft 448 kts 313°
2026-05-07 13:03 46.65130 9.80140 32484 ft 445 kts 314°
2026-05-07 13:03 46.67369 9.77024 31755 ft 440 kts 314°
2026-05-07 13:03 46.69564 9.73944 30089 ft 441 kts 314°
2026-05-07 13:04 46.71806 9.70763 28436 ft 440 kts 315°
2026-05-07 13:04 46.73979 9.67694 27179 ft 429 kts 314°
2026-05-07 13:04 46.76110 9.64697 26258 ft 422 kts 315°
2026-05-07 13:04 46.78202 9.61743 25976 ft 422 kts 315°
2026-05-07 13:05 46.80288 9.58783 25401 ft 415 kts 315°
2026-05-07 13:05 46.82354 9.55854 24870 ft 413 kts 315°
2026-05-07 13:05 46.84411 9.52940 24328 ft 408 kts 315°
2026-05-07 13:05 46.86446 9.50053 23790 ft 406 kts 315°
2026-05-07 13:06 46.88462 9.47185 23230 ft 403 kts 314°
2026-05-07 13:06 46.90462 9.44337 22703 ft 401 kts 314°
2026-05-07 13:06 46.92454 9.41503 22186 ft 398 kts 314°
2026-05-07 13:06 46.94429 9.38686 21674 ft 395 kts 314°
2026-05-07 13:07 46.96393 9.35880 21163 ft 393 kts 314°
2026-05-07 13:07 46.98344 9.33091 20657 ft 390 kts 314°
2026-05-07 13:07 47.00281 9.30321 20152 ft 388 kts 314°
2026-05-07 13:07 47.02230 9.27529 19641 ft 385 kts 314°
2026-05-07 13:08 47.04139 9.24792 19146 ft 382 kts 314°
2026-05-07 13:08 47.06061 9.22034 18642 ft 380 kts 314°
2026-05-07 13:08 47.07939 9.19335 18115 ft 377 kts 314°
2026-05-07 13:08 47.09806 9.16650 17639 ft 374 kts 314°
2026-05-07 13:09 47.11661 9.13977 17146 ft 372 kts 314°
2026-05-07 13:09 47.13505 9.11317 16663 ft 369 kts 314°
2026-05-07 13:09 47.15336 9.08675 16185 ft 367 kts 314°
2026-05-07 13:09 47.17128 9.06088 15716 ft 365 kts 314°
2026-05-07 13:10 47.18961 9.03437 15236 ft 363 kts 314°
2026-05-07 13:10 47.20755 9.00840 14767 ft 361 kts 313°
2026-05-07 13:10 47.22539 8.98257 14299 ft 358 kts 314°
2026-05-07 13:10 47.24521 8.96036 13755 ft 361 kts 330°
2026-05-07 13:11 47.26913 8.94900 13284 ft 363 kts 348°
2026-05-07 13:11 47.29429 8.94991 13012 ft 363 kts
2026-05-07 13:11 47.31823 8.96251 12871 ft 371 kts 26°
2026-05-07 13:11 47.33804 8.98676 12223 ft 370 kts 47°
2026-05-07 13:12 47.35371 9.01723 11629 ft 368 kts 53°
2026-05-07 13:12 47.36846 9.04798 10993 ft 364 kts 54°
2026-05-07 13:12 47.38313 9.07817 10364 ft 361 kts 53°
2026-05-07 13:12 47.39774 9.10743 9728 ft 346 kts 52°
2026-05-07 13:13 47.41163 9.13539 9126 ft 329 kts 53°
2026-05-07 13:13 47.42476 9.16222 8572 ft 315 kts 53°
2026-05-07 13:13 47.43700 9.18723 8042 ft 303 kts 53°
2026-05-07 13:13 47.44922 9.21202 7519 ft 294 kts 52°
2026-05-07 13:14 47.46112 9.23617 7026 ft 286 kts 52°
2026-05-07 13:14 47.47264 9.25962 6541 ft 279 kts 52°
2026-05-07 13:14 47.48390 9.28260 6058 ft 273 kts 52°
2026-05-07 13:14 47.49496 9.30515 5594 ft 268 kts 52°
2026-05-07 13:15 47.50510 9.32790 5109 ft 258 kts 62°
2026-05-07 13:15 47.50797 9.35293 4797 ft 236 kts 91°
2026-05-07 13:15 47.50579 9.37724 4514 ft 243 kts 100°
2026-05-07 13:15 47.50303 9.40032 4064 ft 206 kts 100°
2026-05-07 13:16 47.50083 9.41983 3687 ft 188 kts 100°
2026-05-07 13:16 47.49872 9.43877 3368 ft 184 kts 99°
2026-05-07 13:16 47.49674 9.45651 3062 ft 164 kts 100°
2026-05-07 13:16 47.49500 9.47222 2744 ft 145 kts 99°
2026-05-07 13:17 47.49342 9.48641 2495 ft 138 kts 98°
2026-05-07 13:17 47.49189 9.50012 2257 ft 135 kts 97°
2026-05-07 13:17 47.49031 9.51380 2005 ft 134 kts 97°
2026-05-07 13:17 47.48862 9.52721 1744 ft 130 kts 96°
2026-05-07 13:18 47.48717 9.54025 1524 ft 126 kts 95°
2026-05-07 13:18 47.48585 9.55302 1321 ft 125 kts 95°
2026-05-07 13:18 47.48468 9.56412 1311 ft 83 kts 98°
2026-05-07 13:18 47.48419 9.56883 1311 ft 28 kts 99°
2026-05-07 13:19 47.48405 9.57043 1313 ft 8 kts 77°
2026-05-07 13:19 47.48462 9.57074 1312 ft 13 kts
2026-05-07 13:19 47.48548 9.57064 1312 ft 11 kts 307°
2026-05-07 13:19 47.48567 9.56945 1312 ft 12 kts 278°
2026-05-07 13:20 47.48580 9.56816 1312 ft 13 kts 279°
2026-05-07 13:20 47.48594 9.56681 1312 ft 14 kts 278°
2026-05-07 13:20 47.48608 9.56538 1312 ft 14 kts 278°
2026-05-07 13:20 47.48624 9.56393 1312 ft 15 kts 282°
2026-05-07 13:21 47.48640 9.56242 1312 ft 15 kts 277°
2026-05-07 13:21 47.48656 9.56096 1312 ft 9 kts 279°
2026-05-07 13:21 47.48667 9.55999 1312 ft 10 kts 279°
2026-05-07 13:21 47.48679 9.55890 1312 ft 12 kts 279°
2026-05-07 13:22 47.48693 9.55751 1312 ft 15 kts 278°
2026-05-07 13:22 47.48710 9.55583 1312 ft 17 kts 278°
2026-05-07 13:22 47.48724 9.55433 1312 ft 16 kts 277°
2026-05-07 13:22 47.48723 9.55356 1312 ft 9 kts 232°
2026-05-07 13:23 47.48703 9.55334 1312 ft 3 kts 271°
2026-05-07 13:23 47.48711 9.55233 1312 ft 8 kts 275°
2026-05-07 13:23 47.48716 9.55213 1312 ft 0 kts 331°
2026-05-07 13:23 47.48723 9.55215 1312 ft 1 kts
2026-05-07 13:24 47.48727 9.55215 1312 ft 0 kts